Wind_Speed
22 22 22 22 22 22 21 20 20 20 20 19 20 20 20 20 20 20 18 17 17 17 16 15 14 13 13 12 12 12 12 11 10 10 10 9 9 8 8 8 7 7 6 6 6 6 6 6 6
23 23 24 24 24 23 22 23 23 22 21 21 22 22 22 22 22 21 20 19 19 18 18 16 15 15 14 14 14 14 13 13 12 12 11 11 10 10 10 9 9 9 9 8 8 8 7 7 7
25 25 26 26 26 25 25 26 25 25 25 25 24 24 24 23 23 23 22 21 21 20 19 18 17 16 16 16 15 15 15 14 14 14 13 12 12 12 11 11 11 11 11 11 10 9 9 9 9
26 27 27 28 27 26 28 27 27 27 28 28 27 27 27 25 25 25 24 24 23 22 22 21 20 19 18 17 17 17 16 16 16 15 15 14 13 13 13 13 13 13 12 12 12 12 11 11 10
27 28 28 28 27 27 29 28 29 30 29 29 30 29 29 28 27 26 26 26 25 25 24 24 23 22 21 20 19 18 18 18 17 17 16 16 15 15 15 14 14 14 14 14 14 13 13 13 12
29 29 30 28 27 28 29 29 29 31 32 31 32 32 31 30 30 29 28 28 27 27 26 26 25 24 23 22 21 20 19 19 19 19 18 18 17 17 17 16 16 16 15 15 15 15 15 15 14
30 30 30 29 29 29 30 31 31 32 33 33 33 34 33 32 32 31 30 30 29 28 27 27 27 26 26 24 23 22 21 21 20 20 20 20 20 19 19 18 18 18 17 17 17 17 17 17 16
30 31 30 30 30 30 31 32 33 33 33 33 34 34 34 33 33 32 32 31 31 30 29 28 28 28 27 26 26 25 24 23 22 22 22 22 22 21 21 20 20 20 19 19 19 18 18 18 18
31 32 31 31 32 31 32 33 33 34 34 34 35 35 35 34 34 34 34 33 33 32 31 30 30 29 28 28 27 27 26 25 25 24 24 23 23 23 22 22 21 21 21 21 20 20 19 19 19
31 32 31 31 32 32 32 34 34 35 35 35 37 36 37 36 35 36 36 35 35 35 34 33 32 32 31 30 30 29 29 27 27 26 25 25 24 24 24 23 23 22 22 22 22 21 21 20 20
31 32 32 32 33 34 34 35 36 36 35 36 38 38 38 38 37 37 37 37 37 37 36 36 35 35 34 33 33 32 31 30 29 28 27 27 26 26 25 25 24 24 24 24 23 23 22 22 21
31 31 32 33 34 34 35 35 36 38 36 37 38 39 40 40 39 39 39 39 39 39 39 39 38 37 37 36 35 35 34 33 31 31 30 29 29 28 27 27 26 26 26 26 25 24 24 23 23
31 31 31 32 33 35 35 36 36 37 38 38 39 40 40 41 40 40 41 40 40 41 41 40 40 39 39 38 37 36 36 35 35 34 33 32 31 30 30 29 28 28 27 27 26 26 26 26 25
31 31 32 32 33 34 35 35 36 36 37 37 38 40 40 40 41 41 42 41 41 42 42 41 40 40 40 39 39 38 37 37 36 36 36 34 33 33 32 31 31 30 29 28 28 28 27 27 27
31 31 32 32 33 34 35 35 35 36 37 37 38 38 40 41 41 42 42 43 42 42 42 42 42 41 41 41 40 40 39 38 38 38 37 37 36 35 34 34 33 32 31 31 30 30 29 29 29
31 32 32 32 33 34 35 35 33 36 38 39 39 39 40 41 42 43 43 42 42 43 43 42 42 42 42 41 41 41 40 40 39 39 38 38 38 38 37 36 36 35 34 33 33 32 31 31 30
31 32 32 31 32 34 36 34 34 36 39 39 39 40 41 41 42 43 44 44 43 44 44 44 43 44 43 43 43 42 41 41 41 40 39 39 40 39 39 38 38 38 36 35 35 34 34 34 33
30 32 32 32 32 34 35 35 35 36 39 39 40 41 41 42 42 43 44 45 45 46 45 45 44 45 44 45 45 45 43 43 42 42 41 41 41 40 41 41 40 40 38 38 37 37 37 36 36
30 31 32 32 32 34 35 35 35 36 38 39 40 41 41 43 44 43 45 45 46 47 47 46 46 46 46 46 47 46 45 44 43 43 43 42 42 41 42 43 42 41 41 40 40 39 38 38 37
30 30 30 30 31 34 35 35 35 36 37 38 39 40 41 42 44 44 45 45 46 46 47 47 47 47 47 46 47 47 46 46 45 45 45 45 45 44 44 44 44 43 42 42 42 41 40 40 40
29 29 29 30 32 33 36 36 35 36 37 37 38 39 41 42 43 44 45 45 45 45 45 47 46 47 46 47 47 47 47 47 47 47 46 46 46 45 45 45 45 44 44 43 43 42 42 42 42
27 27 29 30 32 33 34 36 34 35 36 37 37 38 40 41 42 44 45 45 44 43 43 44 46 46 46 46 47 48 48 48 48 48 47 47 47 47 46 45 45 45 46 45 44 44 44 44 44
27 28 29 29 31 32 32 35 33 33 34 34 35 37 39 40 40 41 42 43 44 43 43 43 45 45 45 45 46 47 48 49 48 48 48 47 47 47 47 46 47 47 47 47 46 46 45 45 45
26 27 28 28 29 31 31 33 34 32 32 32 32 34 35 37 38 38 40 41 43 43 43 43 45 44 45 45 44 45 46 46 46 47 49 50 49 49 48 47 48 48 48 47 47 47 47 46 46
26 26 27 28 28 29 29 32 33 30 30 30 31 31 32 33 35 37 38 39 40 42 43 43 43 43 43 43 44 44 44 45 45 45 47 48 48 49 49 48 48 48 48 47 47 47 47 47 46
25 25 26 28 28 28 28 30 29 28 27 28 29 30 30 30 32 35 36 39 39 38 39 40 41 42 42 43 42 43 43 44 45 45 47 48 48 48 49 49 49 48 48 47 48 48 47 48 48
25 26 27 28 29 29 28 27 27 27 27 27 27 28 29 29 30 32 33 36 37 37 37 38 40 40 40 40 41 41 42 43 44 44 45 47 47 47 47 47 47 48 48 48 48 48 48 49 49
26 26 27 28 29 30 29 27 27 26 26 27 27 28 29 29 29 29 30 33 35 36 37 37 38 38 39 39 40 41 42 43 43 44 44 45 46 46 46 46 47 48 48 49 48 49 49 50 50
26 26 27 28 29 30 30 27 26 27 27 27 28 28 28 28 29 31 31 32 33 35 36 36 37 38 39 39 40 41 42 43 42 44 44 45 46 46 47 47 48 49 49 49 49 49 50 50 50
26 26 27 28 28 29 30 27 26 28 28 28 28 28 28 29 29 30 31 31 32 33 35 36 38 39 40 39 40 41 42 43 44 44 45 46 47 48 49 49 48 49 49 49 49 50 50 50 49
Wind_Direction
245 246 248 248 248 248 248 250 249 247 246 246 246 247 248 249 248 249 247 244 243 242 245 248 246 247 249 250 250 252 254 256 257 260 263 266 267 266 265 267 269 274 277 280 282 283 285 291 294
246 247 250 250 251 251 251 252 251 249 249 247 247 248 248 248 249 249 248 245 243 241 244 246 244 245 247 250 252 253 255 256 257 259 261 264 264 264 265 266 269 272 273 275 277 278 280 284 286
248 249 251 252 253 253 253 252 251 250 250 247 247 247 247 248 250 249 248 246 244 243 243 245 245 246 247 250 252 254 255 257 258 258 260 261 261 262 265 268 272 274 275 274 275 275 276 279 282
248 250 252 254 255 255 255 254 253 250 249 248 247 247 248 248 248 249 248 247 246 245 245 245 246 247 248 250 252 254 256 257 256 257 260 259 260 262 265 269 273 275 275 276 276 274 274 277 280
250 252 253 255 257 257 257 256 254 253 251 249 248 248 249 249 248 248 248 247 247 247 246 247 247 247 249 250 252 254 255 256 256 257 259 259 259 263 266 268 272 274 275 274 274 273 273 274 276
252 253 255 257 259 259 258 256 254 254 252 250 250 249 249 249 249 248 247 248 248 248 247 246 247 247 248 250 251 253 255 256 257 257 258 260 261 263 265 267 270 273 275 277 275 274 274 274 274
254 255 257 259 260 259 257 255 254 253 252 251 250 250 250 250 250 249 247 246 247 248 248 247 247 247 248 249 250 252 254 256 257 257 259 261 263 264 265 267 269 271 273 275 277 276 275 274 274
255 256 258 259 261 260 257 254 253 252 251 251 250 250 250 250 251 249 249 247 247 247 248 247 248 248 249 249 250 251 253 255 256 257 259 262 263 263 265 267 268 270 272 274 276 277 276 275 275
256 257 258 260 261 261 259 256 254 254 252 251 251 251 250 250 250 249 249 249 248 248 249 249 248 249 249 249 250 251 253 254 255 256 258 261 263 263 264 267 268 269 271 273 275 274 275 275 274
258 259 260 262 262 262 259 256 256 255 253 251 250 250 250 250 250 250 249 249 249 248 249 249 249 249 250 250 251 251 252 254 255 255 257 258 262 263 264 265 268 270 272 273 273 272 273 274 274
260 262 263 263 262 262 260 256 255 254 254 252 251 250 250 250 250 250 249 250 250 249 249 249 250 250 251 251 252 252 252 253 255 256 257 259 261 263 263 265 267 269 271 271 270 270 271 272 272
262 264 264 263 262 262 261 259 256 255 255 254 253 252 252 252 250 250 250 249 249 249 249 249 250 251 251 251 251 252 252 253 254 256 257 258 260 262 263 264 266 268 270 269 268 269 270 271 272
262 264 264 264 263 263 262 260 257 256 257 256 256 254 252 252 250 249 250 250 250 249 249 250 250 251 251 252 251 251 252 253 254 255 257 258 259 260 261 263 265 267 268 268 269 269 269 270 272
264 265 265 265 265 264 263 260 259 257 257 257 257 255 253 252 251 250 250 250 249 250 250 250 250 251 251 252 252 252 251 252 253 255 256 257 258 259 261 262 264 265 266 267 269 269 269 270 271
267 267 266 265 265 264 263 260 260 259 258 259 260 258 254 253 251 250 250 250 250 249 249 249 250 250 251 252 252 252 251 252 253 255 255 256 257 258 260 262 263 263 264 266 268 268 269 270 271
269 269 267 267 266 264 264 263 262 262 261 261 261 260 257 254 252 251 250 250 250 250 249 249 249 250 251 251 250 251 250 251 253 254 255 255 256 257 259 262 262 262 264 265 266 268 270 272 272
270 270 270 268 267 267 266 265 265 264 262 262 262 260 258 256 254 253 252 251 251 250 249 249 250 251 251 251 250 250 251 251 253 253 254 255 255 257 259 261 261 262 264 264 265 267 269 271 272
272 272 271 271 270 270 268 268 269 267 265 264 262 260 257 257 256 254 253 252 251 251 250 250 250 251 252 251 250 251 252 252 253 254 255 255 255 256 258 260 261 261 262 264 265 267 269 270 271
273 273 272 273 272 272 270 270 270 269 267 265 264 261 259 256 256 255 253 253 253 252 251 251 252 253 252 251 251 252 252 252 253 254 254 255 256 257 258 259 259 260 262 264 265 266 268 269 270
273 274 273 273 275 275 272 272 272 270 270 269 267 263 260 257 256 255 254 253 253 253 252 253 253 254 253 253 253 252 253 253 253 254 255 255 257 259 259 259 259 259 261 264 265 266 267 268 268
274 275 277 277 278 279 277 275 275 274 273 272 269 264 259 258 257 256 254 253 253 253 253 253 253 254 254 254 253 252 253 253 253 254 255 256 258 259 260 260 260 260 260 262 264 265 267 268 269
277 277 279 280 280 281 281 280 276 276 276 275 271 266 260 258 257 256 254 253 253 252 252 253 253 253 253 254 254 254 254 254 255 255 255 256 258 260 261 261 261 261 261 262 263 265 266 268 269
280 279 280 281 281 282 283 282 280 278 276 274 272 268 263 260 259 256 254 253 253 251 252 253 253 253 254 255 255 256 255 255 256 255 254 255 258 260 261 262 262 262 262 263 263 265 266 268 268
279 281 280 281 282 282 282 283 284 281 277 275 273 271 267 263 259 257 254 252 252 251 253 254 254 255 255 255 255 256 255 255 255 255 255 256 259 259 260 261 262 263 263 263 264 265 266 268 268
281 282 284 284 285 285 286 285 285 284 280 278 276 274 270 266 261 257 254 252 253 252 253 254 254 254 254 255 255 256 256 254 254 255 257 259 259 260 261 262 262 263 263 263 264 265 267 268 268
282 283 283 285 287 289 287 286 286 285 282 279 277 275 271 268 264 260 257 256 254 255 255 253 252 252 254 256 255 254 256 256 255 258 259 260 260 261 262 262 262 263 263 263 265 265 267 268 268
282 282 283 284 288 291 290 288 286 286 283 282 280 276 273 271 268 264 260 257 255 256 256 254 253 252 253 255 255 255 256 258 258 260 261 261 261 261 262 262 262 262 262 263 266 267 268 269 270
282 283 281 283 287 291 293 291 290 286 285 283 281 279 277 274 273 267 263 261 260 257 256 254 255 253 255 257 258 259 259 260 260 260 261 261 261 262 262 263 263 262 262 263 265 267 268 270 270
280 281 280 282 284 289 292 290 290 289 288 287 283 282 281 279 277 272 266 263 261 258 256 254 254 255 256 258 259 260 261 261 260 261 261 261 261 262 263 264 264 263 264 264 265 267 268 268 270
279 280 280 281 284 286 289 291 292 291 289 289 286 285 285 283 281 276 271 267 264 262 259 257 255 255 256 258 260 261 260 261 261 263 263 262 263 263 264 264 264 264 264 265 266 267 268 268 270
Height
5830 5831 5833 5834 5836 5837 5838 5840 5841 5843 5844 5845 5846 5847 5849 5850 5851 5855 5855 5855 5856 5857 5858 5859 5860 5861 5862 5863 5863 5864 5864 5865 5865 5865 5865 5865 5866 5866 5866 5866 5866 5866 5866 5866 5865 5865 5865 5865 5865
5825 5827 5829 5830 5831 5832 5835 5836 5836 5838 5840 5841 5842 5844 5845 5846 5847 5849 5850 5852 5853 5854 5855 5857 5858 5859 5860 5860 5861 5862 5862 5862 5863 5863 5863 5864 5864 5864 5864 5864 5864 5864 5864 5864 5864 5864 5864 5864 5863
5821 5822 5824 5825 5826 5829 5830 5830 5832 5834 5835 5836 5838 5839 5841 5843 5844 5845 5847 5848 5850 5851 5852 5854 5855 5856 5857 5858 5859 5859 5860 5860 5861 5861 5861 5862 5862 5862 5862 5863 5863 5863 5863 5863 5862 5862 5862 5862 5862
5816 5817 5819 5820 5822 5824 5824 5825 5826 5828 5829 5831 5833 5834 5836 5838 5840 5841 5843 5844 5846 5848 5849 5850 5852 5853 5854 5855 5856 5856 5857 5857 5858 5858 5859 5859 5859 5860 5860 5860 5860 5860 5860 5860 5860 5860 5860 5860 5860
5810 5811 5813 5814 5817 5818 5818 5819 5820 5821 5823 5825 5827 5828 5830 5833 5834 5836 5838 5840 5842 5844 5845 5847 5848 5849 5851 5852 5853 5853 5854 5854 5855 5855 5856 5856 5856 5857 5857 5857 5858 5858 5858 5858 5857 5857 5858 5857 5857
5804 5805 5807 5809 5811 5813 5812 5813 5814 5814 5816 5819 5820 5822 5824 5826 5828 5831 5833 5835 5837 5839 5841 5842 5844 5845 5847 5848 5849 5850 5850 5851 5852 5852 5853 5853 5853 5854 5854 5854 5855 5855 5855 5854 5854 5854 5854 5854 5854
5799 5800 5801 5803 5804 5806 5806 5806 5807 5808 5809 5811 5814 5816 5818 5820 5822 5825 5827 5829 5831 5834 5836 5837 5839 5841 5842 5843 5844 5846 5847 5847 5848 5848 5849 5849 5850 5850 5850 5851 5851 5851 5851 5851 5851 5851 5851 5851 5851
5791 5793 5795 5796 5797 5799 5798 5799 5799 5800 5802 5805 5806 5809 5811 5814 5816 5818 5821 5823 5825 5828 5830 5832 5834 5835 5837 5838 5840 5841 5842 5843 5843 5844 5845 5845 5846 5846 5846 5847 5847 5847 5847 5847 5847 5846 5846 5846 5846
5784 5786 5787 5789 5790 5791 5791 5791 5792 5793 5795 5797 5799 5802 5804 5807 5809 5811 5814 5816 5819 5821 5824 5826 5828 5830 5832 5833 5835 5836 5837 5838 5838 5839 5840 5841 5841 5842 5842 5842 5842 5843 5842 5842 5842 5842 5842 5842 5842
5777 5778 5781 5782 5782 5783 5783 5784 5785 5786 5787 5790 5791 5794 5796 5799 5801 5804 5807 5810 5812 5814 5817 5819 5821 5823 5825 5827 5829 5830 5831 5832 5833 5834 5835 5836 5836 5837 5837 5837 5838 5838 5838 5837 5837 5837 5837 5837 5837
5770 5771 5773 5773 5773 5774 5774 5776 5776 5777 5780 5782 5784 5787 5788 5791 5793 5796 5799 5802 5804 5806 5809 5812 5814 5816 5818 5820 5822 5824 5825 5826 5827 5828 5829 5830 5831 5831 5832 5832 5832 5832 5832 5832 5832 5832 5832 5832 5832
5763 5764 5765 5765 5765 5765 5766 5767 5768 5769 5772 5774 5775 5778 5780 5782 5785 5788 5791 5794 5796 5798 5801 5804 5806 5808 5810 5812 5814 5816 5818 5819 5821 5822 5823 5824 5824 5825 5826 5826 5827 5827 5827 5827 5827 5827 5827 5827 5828
5755 5757 5757 5757 5757 5757 5757 5758 5759 5761 5763 5765 5766 5768 5771 5773 5776 5779 5782 5785 5787 5790 5792 5795 5798 5800 5802 5804 5806 5808 5810 5811 5813 5814 5816 5817 5817 5818 5819 5820 5820 5821 5821 5821 5821 5822 5822 5822 5822
5748 5749 5749 5749 5749 5749 5749 5750 5751 5754 5754 5755 5757 5759 5761 5764 5766 5770 5773 5776 5778 5781 5784 5786 5789 5791 5793 5795 5797 5799 5801 5803 5804 5806 5808 5809 5810 5811 5812 5813 5813 5814 5814 5815 5815 5815 5816 5816 5816
5740 5741 5741 5741 5741 5741 5741 5742 5744 5745 5745 5747 5748 5749 5751 5754 5757 5760 5763 5766 5769 5772 5774 5777 5780 5782 5784 5786 5788 5790 5792 5794 5796 5797 5799 5801 5802 5803 5804 5805 5806 5807 5807 5808 5808 5809 5809 5810 5810
5733 5733 5734 5735 5733 5733 5734 5735 5737 5736 5736 5737 5739 5740 5742 5744 5747 5750 5753 5756 5759 5762 5765 5767 5770 5772 5774 5776 5778 5780 5782 5784 5786 5788 5790 5792 5794 5795 5796 5798 5798 5799 5800 5801 5802 5802 5803 5803 5803
5725 5726 5726 5727 5725 5724 5724 5726 5728 5727 5726 5728 5729 5730 5732 5734 5737 5740 5743 5746 5749 5751 5755 5758 5760 5763 5765 5766 5768 5770 5772 5774 5777 5778 5781 5783 5785 5787 5788 5789 5790 5791 5792 5793 5794 5795 5795 5796 5796
5719 5718 5718 5718 5717 5717 5716 5717 5718 5718 5717 5718 5719 5720 5721 5724 5727 5730 5733 5736 5738 5741 5744 5747 5750 5752 5754 5756 5758 5760 5762 5764 5767 5769 5771 5774 5776 5777 5779 5780 5781 5782 5783 5784 5785 5786 5787 5787 5788
5712 5711 5711 5711 5710 5709 5708 5709 5709 5709 5708 5708 5709 5710 5711 5714 5716 5719 5721 5724 5727 5730 5733 5736 5739 5741 5744 5745 5747 5749 5751 5754 5757 5759 5761 5764 5765 5767 5769 5770 5771 5773 5774 5775 5776 5777 5778 5779 5779
5704 5704 5704 5704 5702 5701 5700 5700 5700 5699 5699 5698 5699 5700 5701 5703 5705 5708 5710 5713 5717 5720 5723 5725 5728 5730 5732 5734 5736 5738 5741 5743 5746 5749 5751 5753 5755 5757 5758 5759 5761 5763 5764 5766 5767 5768 5769 5769 5770
5698 5698 5697 5696 5695 5693 5691 5691 5691 5689 5689 5689 5689 5689 5691 5693 5694 5696 5699 5702 5706 5709 5711 5714 5716 5718 5720 5722 5724 5727 5729 5732 5735 5738 5741 5743 5745 5746 5748 5748 5750 5752 5754 5755 5757 5758 5759 5760 5760
5692 5691 5690 5688 5686 5685 5683 5681 5683 5680 5679 5679 5679 5679 5680 5681 5683 5685 5688 5691 5694 5698 5700 5702 5705 5706 5709 5711 5713 5716 5719 5722 5725 5728 5730 5732 5734 5736 5737 5738 5740 5742 5743 5745 5746 5747 5748 5749 5750
5685 5684 5683 5681 5679 5677 5676 5672 5674 5673 5670 5669 5669 5669 5669 5671 5672 5674 5676 5679 5683 5687 5689 5692 5693 5695 5697 5700 5702 5705 5707 5710 5713 5716 5718 5720 5722 5724 5726 5728 5729 5731 5732 5734 5735 5736 5737 5738 5739
5679 5677 5676 5674 5672 5670 5669 5665 5664 5664 5663 5662 5661 5660 5660 5661 5662 5663 5666 5668 5672 5675 5678 5680 5683 5685 5687 5689 5691 5693 5695 5698 5701 5704 5706 5708 5711 5712 5714 5716 5718 5719 5721 5722 5723 5724 5725 5727 5728
5672 5671 5669 5667 5664 5663 5662 5659 5658 5657 5656 5655 5654 5653 5652 5652 5653 5654 5656 5658 5662 5664 5667 5670 5673 5675 5676 5679 5681 5683 5684 5687 5690 5693 5695 5697 5699 5701 5703 5705 5706 5707 5709 5710 5711 5713 5714 5715 5716
5666 5664 5663 5661 5658 5658 5656 5653 5653 5652 5650 5648 5647 5646 5645 5644 5645 5646 5647 5648 5651 5654 5657 5659 5662 5664 5667 5669 5671 5673 5675 5677 5679 5681 5683 5685 5687 5689 5691 5692 5694 5695 5697 5698 5700 5701 5702 5703 5704
5660 5658 5657 5655 5652 5650 5649 5648 5647 5646 5644 5643 5641 5639 5638 5638 5638 5638 5638 5639 5641 5644 5647 5649 5651 5654 5658 5660 5662 5664 5665 5667 5668 5670 5672 5673 5675 5677 5678 5680 5681 5683 5685 5687 5688 5689 5690 5691 5692
5654 5653 5651 5648 5646 5643 5643 5642 5642 5640 5638 5637 5635 5633 5632 5632 5631 5631 5630 5631 5633 5635 5637 5639 5642 5645 5648 5650 5653 5654 5655 5657 5658 5659 5660 5662 5664 5665 5667 5668 5669 5671 5672 5674 5676 5677 5678 5679 5680
5648 5647 5644 5643 5641 5638 5636 5639 5637 5634 5631 5630 5628 5627 5625 5624 5624 5623 5623 5624 5625 5627 5629 5631 5633 5635 5638 5640 5643 5644 5645 5646 5647 5649 5649 5650 5652 5653 5655 5656 5658 5659 5660 5662 5664 5665 5666 5667 5668
5641 5640 5639 5637 5636 5633 5630 5634 5632 5628 5625 5623 5621 5620 5618 5617 5617 5616 5616 5616 5617 5619 5620 5622 5624 5626 5628 5630 5632 5634 5634 5635 5637 5638 5638 5639 5640 5641 5642 5644 5645 5646 5648 5649 5651 5653 5654 5655 5655